Location: Chimay
(50.0486°N, 4.3171°E)
Time: 17:47:22
(UTC+00:00)

Cosmos 1980 Rocket - Pass Details

Date: 08 August 2020
Orbit: 830 x 849 km, 71.0° (Epoch: 25 September)

Event Time Altitude Azimuth Distance (km) Brightness Sun altitude
Rises 22:19:37 0° 321° (NW) 3,419 6.7 -21.3°
Reaches altitude 10° 22:22:41 10° 305° (NW) 2,476 5.4 -21.5°
Maximum altitude 22:26:40 20° 260° (W) 1,863 4.1 -21.7°
Enters shadow 22:29:23 14° 226° (SW) 2,163 4.1 -21.9°
